Location: Albert Place
(40.7505°N, 111.9230°W)
Time: 06:04:19
(UTC+00:00)

Cosmos 1602 Rocket - Pass Details

Date: 13 December 2025
Orbit: 596 x 626 km, 82.5° (Epoch: 20 January)

Event Time Altitude Azimuth Distance (km) Brightness Sun altitude
Rises 13:37:37 0° 195° (SSW) 2,895 7.1 -12.1°
Reaches altitude 10° 13:39:51 10° 199° (SSW) 1,994 6.2 -11.7°
Maximum altitude 13:44:14 61° 279° (W) 713 3.6 -10.9°
Drops below altitude 10° 13:48:38 10° 1° (N) 2,007 6.0 -10.2°
Sets 13:50:55 0° 5° (N) 2,916 6.8 -9.8°
